Regional Weather Roundup
Issued by NWS

Home | Current Version | Previous Version | Graphics & Text | Print | Product List | Glossary On
Versions: 1 2 3 4 5 6 7 8 9 10 11 12 13 14 15 16 17 18 19 20 21 22 23 24 25 26 27
000
ASUS45 KTFX 202210
RWRMT
MONTANA REGIONAL WEATHER ROUNDUP
NATIONAL WEATHER SERVICE GREAT FALLS MT
300 PM MST TUE FEB 20 2018

NOTE: "FAIR" INDICATES FEW OR NO CLOUDS BELOW 12000 FEET WITH NO
SIGNIFICANT WEATHER AND/OR OBSTRUCTIONS TO VISIBILITY.

MTZ001>007-043-202300-
WEST OF THE DIVIDE

CITY           SKY/WX    TMP DP  RH WIND       PRES   REMARKS
KALISPELL      CLOUDY    13   1  59 CALM      30.13F
MISSOULA       CLOUDY    13   0  56 CALM      30.12F
BUTTE          FAIR       3  -6  66 S3        29.92S
MULLAN PASS    LGT SNOW   2  -1  88 CALM      29.85S VSB 1
ANACONDA         N/A      7  -8  51 N6        29.98S WCI  -3
DEER LODGE       N/A      7  -6  56 CALM      30.02S
HAMILTON         N/A     18  -2  41 MISG      30.07F
RONAN            N/A      3   0  85 SW3       30.16F
$$

MTZ008-052>055-202300-
SOUTHWEST MONTANA

CITY           SKY/WX    TMP DP  RH WIND       PRES   REMARKS
BOZEMAN        FAIR       4  -7  60 E3        30.04R
DILLON         FAIR       0  -5  79 N3        29.94F
ENNIS          PTSUNNY    9  -6  52 CALM      29.98S
W YELLOWSTONE  PTSUNNY    7  -4  61 SW15G21   29.85R HAZE    WCI -11
THREE FORKS      N/A      6  -9  50 CALM      30.03S
TWIN BRIDGES     N/A     10  -9  42 CALM      29.97F
$$

MTZ009-010-012-014-046-048-049-054-202300-
EAST SLOPES AND CENTRAL MONTANA

CITY           SKY/WX    TMP DP  RH WIND       PRES   REMARKS
CUT BANK       PTSUNNY    9   0  67 NW7       30.02R WCI  -2
GREAT FALLS    FAIR       6  -4  63 SW9       30.04S WCI  -8
HELENA         FAIR       3  -7  63 CALM      30.07S
AUGUSTA        FAIR       1  -5  73 SW3       29.98R
RAYNESFORD     FAIR      11  -9  41 W10       30.01R WCI  -3
WHITE SULPHUR    N/A      0  -8  71 CALM      29.95R
$$

MTZ011-013-016-021-045-047-050-051-202300-
NORTH CENTRAL MONTANA

CITY           SKY/WX    TMP DP  RH WIND       PRES   REMARKS
HAVRE          FAIR       0  -7  72 SW21      30.11R WCI -22
LEWISTOWN      FAIR       4  -6  63 SW8       30.00R WCI  -9
N BAR RANCH    FAIR       9  -9  43 NW16      29.98R WCI  -9
CHINOOK          N/A      0 -13  55 E3        30.13R
GEYSER         FAIR       9  -6  52 W16       29.99S WCI  -9
STANFORD       FAIR       7  -4  62 NW14      29.97R WCI -10
$$

MTZ017>020-022>027-061-062-202300-
NORTHEAST MONTANA

CITY           SKY/WX    TMP DP  RH WIND       PRES   REMARKS
GLASGOW        FAIR      -2 -10  69 W8        30.12S WCI -17
GLENDIVE       FAIR       3  -6  66 SW9       30.14R WCI -12
JORDAN           N/A      1  -9  62 W12       30.11R WCI -16
MALTA          SUNNY     -8 -13  77 W8        30.13R WCI -23
SIDNEY         FAIR       6  -4  63 W15       30.15R WCI -12
WOLF POINT     FAIR       1  -7  68 W8        30.16R WCI -13
PLENTYWOOD       N/A      3  -6  66 SW12      30.05R WCI -13
POPLAR           N/A      0  -8  71 W13       30.15R WCI -18
$$

MTZ028>42-056>058-202300-
SOUTHCENTRAL AND SOUTHEAST MONTANA

CITY           SKY/WX    TMP DP  RH WIND       PRES   REMARKS
BAKER          FAIR       0  -6  76 W18       30.09R WCI -21
BILLINGS       FAIR       8  -3  61 SW14      30.06R WCI  -8
LIVINGSTON     FAIR      11  -1  58 NW13      29.97S WCI  -4
MILES CITY     FAIR      -1  -7  75 S5        30.15R
BIG TIMBER     SUNNY     12  -4  48 W17       29.99S WCI  -5
FORSYTH          N/A      3  -8  60 W3        30.14R
LAUREL           N/A      7  -4  61 SW16      30.09R WCI -11
$$

REGIONAL REPORTS...DAKOTAS

CITY           SKY/WX    TMP DP  RH WIND       PRES   REMARKS
WILLISTON      FAIR       5  -4  66 W12G22    30.12R WCI -11
MINOT          FAIR      10   0  63 W18G25    30.07S WCI  -8
DICKINSON      FAIR       5  -3  69 W23       30.06R WCI -17
BEACH          PTSUNNY    0  -6  78 W17       30.13R WCI -21
CROSBY         FAIR       7  -4  61 SW17      30.06R WCI -12
TIOGA          FAIR       3  -2  78 W18G26    30.06R WCI -17
WATFORD CITY   FAIR       5  -4  66 W15G23    30.11R WCI -13
BISMARCK       FAIR      12  -1  56 W17       30.16R WCI  -5
GRAND FORKS    FAIR      12   1  61 W16       30.13R WCI  -5
FARGO          FAIR      12   3  67 W15       30.17R WCI  -4
BUFFALO SD       N/A      3  -4  72 SW16      30.03R WCI -16
RAPID CITY     FAIR       1  -5  75 S12       30.13R WCI -16
$$

REGIONAL REPORTS...WYOMING/IDAHO/WASHINGTON

CITY           SKY/WX    TMP DP  RH WIND       PRES   REMARKS
GILLETTE       FAIR       4  -7  60 SW7       30.03R WCI  -8
SHERIDAN       FAIR      12  -5  46 CALM      30.04R
BUFFALO WY     FAIR       6  -8  52 S9        29.99R WCI  -8
CODY           FAIR       6  -7  54 NE7       29.96R WCI  -6
YELLOWSTONE LA   N/A      3  -5  69 MISG      29.80R
IDAHO FALLS    CLOUDY    15   5  64 SW17G26   30.05S WCI  -1
SALMON         FAIR      23   1  38 SE9       30.01F WCI  13
BOISE          FAIR      25   0  33 CALM      30.15F
SPOKANE        PTSUNNY   20   7  57 SE6       30.15S WCI  12
$$

REGIONAL REPORTS...ALBERTA

CITY           SKY/WX    TMP DP  RH WIND       PRES   REMARKS
$$

REGIONAL REPORTS...SASKATCHEWAN

CITY           SKY/WX    TMP DP  RH WIND       PRES   REMARKS
$$




USA.gov is the U.S. government's official web portal to all federal, state and local government web resources and services.